SCP
0 0 0 0 0 0 0 0 0 0 0 0 0 0 0 0 0 0 0 0 0 0 0 0 0 0 0 0 1 1 1 0 0 0 0 0 0 0 0 0 0 0 0 0
0 0 0 0 0 0 0 0 0 0 0 0 0 0 0 0 0 0 0 0 0 0 0 0 0 0 0 0 1 1 0 0 0 0 0 0 0 0 0 0 0 0 0 0
0 0 0 0 0 0 0 0 0 0 0 0 0 0 0 0 0 0 0 0 0 0 0 0 0 0 0 0 0 0 0 0 0 0 0 0 0 0 0 0 0 0 0 0
0 0 0 0 0 0 0 0 0 0 0 0 0 0 0 0 0 0 0 0 0 0 0 0 0 0 0 0 0 0 0 0 0 0 0 0 0 0 0 0 0 0 0 0
0 0 0 0 0 0 0 0 0 0 0 0 0 0 0 0 0 0 0 0 0 0 0 0 0 0 0 0 0 0 0 0 0 0 0 0 0 0 0 0 0 0 0 0
0 0 0 0 0 0 0 0 0 0 0 0 0 0 0 0 0 0 0 0 0 0 0 0 0 0 0 0 0 0 0 0 0 0 0 0 0 0 0 0 0 0 0 0
0 0 0 0 0 0 0 0 0 0 0 0 0 0 0 0 0 0 0 0 0 0 0 0 0 0 0 0 0 0 0 0 0 0 0 0 0 0 0 0 0 0 0 0
0 0 0 0 0 0 0 0 0 0 0 0 0 0 0 0 0 0 0 0 0 0 0 0 0 0 0 0 0 0 0 0 0 0 0 0 0 0 0 0 0 0 0 0
0 0 0 0 0 0 0 0 0 0 0 0 0 0 0 0 0 0 0 0 0 0 0 0 0 0 0 0 0 0 0 0 0 0 0 0 0 0 0 0 0 0 0 0
0 0 0 0 0 0 0 0 0 0 0 0 0 0 0 0 0 0 0 0 0 0 0 0 0 0 0 0 0 0 0 0 0 0 0 0 0 0 0 0 0 0 0 0
0 0 0 0 0 0 0 0 0 0 0 0 0 0 0 0 0 0 0 0 0 0 0 0 0 0 0 0 0 0 0 0 0 0 0 0 0 0 0 0 0 0 0 0
0 0 0 0 0 0 0 0 0 0 0 0 0 0 0 0 0 0 0 0 0 0 0 0 0 0 0 0 0 0 0 0 0 0 0 0 0 0 0 0 0 0 0 0
0 0 0 0 0 0 0 0 0 0 0 0 0 0 0 0 0 0 0 0 0 0 0 0 0 0 0 0 0 0 0 0 0 0 0 0 0 0 0 0 0 0 0 0
0 0 0 0 0 0 0 0 0 0 0 0 0 0 0 0 0 0 0 0 0 0 0 0 0 0 0 0 0 0 0 0 0 0 0 0 0 0 0 0 0 0 0 0
0 0 0 0 0 0 0 0 0 0 0 0 0 0 0 0 0 0 0 0 0 0 0 0 0 0 0 0 0 0 0 0 0 0 0 0 0 0 0 0 0 0 0 0
0 0 0 0 0 0 0 0 0 0 0 0 0 0 0 0 0 0 0 0 0 0 0 0 0 0 0 0 0 0 0 0 0 0 0 0 0 0 0 0 0 0 0 0
0 0 0 0 0 0 0 0 0 0 0 0 0 0 0 0 0 0 0 0 0 0 0 0 0 0 0 0 0 0 0 0 0 0 0 0 0 0 0 0 0 0 0 0
0 0 0 0 0 0 0 0 0 0 0 0 0 0 0 0 0 0 0 0 0 0 0 0 0 0 0 0 0 0 0 0 0 0 0 0 0 0 0 0 0 0 0 0
-0 0 0 0 0 0 0 0 0 0 0 0 0 0 0 0 0 0 0 0 0 0 0 0 0 0 0 0 0 0 0 0 0 0 0 0 0 0 0 0 0 0 0 0
0 0 0 0 0 0 0 0 0 0 0 0 0 0 0 0 0 0 0 0 0 0 0 0 0 0 0 0 0 0 0 0 0 0 0 0 0 0 0 0 0 0 0 0
0 0 0 0 0 0 0 0 0 0 0 0 0 0 0 0 0 0 0 0 0 0 0 0 0 0 0 0 0 0 0 0 0 0 0 0 0 0 0 0 0 0 0 0
0 0 0 0 0 0 0 0 0 0 0 0 0 0 0 0 0 0 0 0 0 0 0 0 0 0 0 0 0 0 0 0 0 0 0 0 0 0 0 0 0 0 0 0
0 0 0 0 0 0 0 0 0 0 0 0 0 0 0 0 0 0 0 0 0 0 0 0 0 0 0 0 0 0 0 0 0 0 0 0 0 0 0 0 0 0 0 0
0 0 0 0 0 0 0 0 0 0 0 0 0 0 0 0 0 0 0 0 0 0 0 0 0 0 0 0 0 0 0 0 0 0 0 0 0 0 0 0 0 0 0 0
0 0 0 0 0 0 0 0 0 0 0 0 0 0 0 0 0 0 0 0 0 0 0 0 0 0 0 0 0 0 0 0 0 0 0 0 0 0 0 0 0 0 0 0
0 0 0 0 0 0 0 0 0 0 0 0 0 0 0 0 0 0 0 0 0 0 0 0 0 0 0 0 0 0 0 0 0 0 0 0 0 0 0 0 0 0 0 0
Wind_Speed
3 4 7 7 9 7 7 9 11 9 6 8 12 14 13 10 10 11 11 11 11 11 9 8 7 7 6 6 7 6 6 5 4 4 5 5 4 4 3 3 4 4 3 3
4 7 8 6 6 7 8 9 10 7 4 7 10 14 13 12 12 12 12 12 12 10 8 7 7 7 7 7 7 7 6 6 5 4 4 3 3 3 2 3 3 4 3 3
6 3 3 5 6 6 8 10 8 7 6 7 9 13 12 8 10 10 11 11 11 11 10 8 8 8 7 7 7 6 6 5 5 5 4 3 3 2 2 3 3 3 3 3
4 4 4 6 6 7 8 6 7 7 6 5 5 8 9 8 9 9 9 10 10 10 10 9 8 8 8 7 6 6 6 4 4 6 6 6 5 4 4 3 3 3 3 3
3 3 5 6 6 6 6 4 5 6 6 7 6 8 8 6 9 9 8 8 9 9 10 9 8 8 7 5 5 5 5 4 4 5 6 7 5 4 3 3 4 4 3 3
4 3 4 4 4 4 3 2 3 4 4 8 8 9 8 6 8 7 6 6 7 8 9 8 6 6 4 4 5 5 5 5 5 5 5 6 7 6 5 5 4 4 3 3
2 3 2 2 2 3 3 2 2 3 4 6 3 7 9 5 6 6 5 4 5 6 7 7 6 5 5 6 6 5 6 5 5 5 5 6 6 7 7 6 5 4 3 3
3 3 2 2 3 4 5 4 3 4 4 3 4 8 6 3 3 4 4 4 4 4 5 6 6 6 6 5 5 5 6 6 5 5 5 5 6 5 4 5 4 4 3 3
3 3 0 2 2 3 4 4 3 3 4 5 5 6 6 4 4 3 4 4 4 3 4 4 5 5 5 5 5 5 6 6 5 5 5 5 5 5 4 4 4 3 3 3
2 4 2 1 2 1 1 2 3 4 4 5 5 5 4 3 4 3 3 4 4 3 2 2 3 4 4 4 4 5 5 6 5 5 5 4 5 5 4 4 4 4 4 4
2 2 1 1 3 3 2 3 2 3 4 5 5 3 0 3 4 4 4 4 4 3 2 2 2 2 2 3 3 4 5 5 5 5 4 4 5 5 5 4 4 4 4 4
1 2 3 3 1 2 3 3 4 3 4 4 5 4 1 3 4 4 5 4 3 3 3 2 1 1 2 2 2 3 3 4 4 4 4 4 4 5 4 4 4 4 4 4
2 2 2 2 3 1 3 3 4 4 3 4 6 5 2 3 4 5 6 4 4 3 3 2 1 1 1 2 2 3 3 3 3 3 4 4 4 4 4 4 4 4 3 3
2 3 4 4 2 2 4 4 5 5 5 6 9 11 8 7 7 7 7 6 4 4 3 3 2 2 1 1 2 2 2 3 3 3 4 4 4 4 4 4 3 3 3 3
1 3 3 5 5 4 6 7 7 9 9 8 10 12 12 9 9 8 7 5 4 4 4 4 3 2 2 2 1 2 2 2 3 4 4 4 3 3 3 3 3 3 3 3
0 2 2 4 4 5 7 10 10 11 11 12 13 15 11 10 8 8 7 5 4 4 4 4 3 3 3 3 2 2 2 2 3 4 4 3 3 3 3 3 3 3 3 3
2 2 3 4 3 4 9 9 10 9 9 9 12 12 8 8 8 8 7 6 6 5 4 4 3 3 4 3 3 3 2 2 3 3 3 3 4 3 3 3 3 3 3 3
3 3 2 2 2 8 2 1 5 7 8 8 10 10 9 10 9 8 6 6 6 5 4 4 4 4 4 3 2 2 2 2 3 3 3 3 3 3 3 3 3 3 3 3
3 4 2 2 4 8 5 3 4 5 7 6 9 10 9 8 6 4 4 5 5 4 4 3 3 4 3 3 2 1 2 1 2 2 2 3 3 4 4 3 3 3 3 2
1 2 3 3 5 6 2 1 1 3 5 2 4 6 6 4 4 4 5 5 5 3 3 3 3 3 2 2 1 1 1 1 1 1 1 2 3 3 4 3 3 2 2 2
2 2 4 5 6 8 2 1 3 4 2 2 3 5 4 4 5 5 6 5 4 3 3 3 2 2 2 2 1 1 1 1 1 1 1 1 2 2 3 3 2 3 2 2
5 5 5 5 7 7 2 4 5 3 4 3 4 4 5 6 5 4 4 4 4 4 3 3 2 2 2 2 1 1 2 1 1 1 2 2 2 2 2 3 3 3 3 3
6 6 4 7 6 3 3 4 3 3 4 5 5 5 4 5 5 4 4 4 4 4 3 3 2 3 3 2 2 2 1 0 1 2 2 2 2 2 2 3 3 3 2 2
5 4 5 7 9 8 7 7 7 6 6 6 6 5 4 5 5 5 4 4 4 4 3 3 3 3 3 3 2 2 1 1 2 2 2 2 2 2 2 2 2 2 3 3
5 5 6 9 9 8 7 7 7 6 6 6 6 5 5 5 5 5 4 4 4 4 3 3 3 3 3 3 2 2 1 1 2 2 2 2 2 2 2 2 1 2 2 3
7 8 8 7 5 5 5 4 5 6 6 6 5 5 4 4 5 4 4 4 4 3 3 3 3 3 3 2 2 2 1 2 2 2 2 2 2 2 2 2 1 1 2 2
Wind_Direction
184 202 215 214 214 241 249 255 264 271 273 256 248 255 261 251 243 243 239 236 232 230 231 227 225 219 208 201 199 192 191 193 181 181 176 175 176 173 171 175 176 178 184 188
185 219 229 235 226 229 237 252 266 275 267 260 259 263 263 250 239 240 239 236 232 233 230 225 217 211 207 203 198 196 195 195 190 189 185 178 167 167 166 164 177 182 179 182
209 230 226 217 221 227 240 241 260 275 287 260 265 262 246 239 232 235 240 240 231 227 227 222 216 208 206 203 198 197 199 199 194 181 166 155 145 149 171 177 181 181 181 185
229 244 224 220 226 227 248 243 257 264 262 267 255 271 254 248 237 235 238 235 231 225 226 223 218 211 211 202 193 196 195 195 192 184 180 177 182 187 192 186 181 181 187 190
224 229 221 227 240 232 244 266 250 254 256 267 249 259 262 241 245 245 240 234 231 228 224 220 217 216 211 202 192 196 191 187 190 194 191 189 192 195 183 180 183 186 186 191
247 251 248 254 261 235 235 244 228 227 237 253 242 243 267 235 241 246 243 232 230 225 228 223 216 214 203 198 197 192 184 186 191 196 197 199 195 190 187 188 188 189 191 197
259 225 225 247 244 205 211 219 228 214 220 248 219 240 257 248 242 250 258 250 237 228 223 216 211 208 202 195 189 185 185 190 194 197 202 204 202 198 199 197 196 192 195 205
236 240 210 232 235 225 214 222 233 253 258 263 217 243 262 266 275 278 278 281 268 235 227 217 209 204 199 193 189 188 190 195 199 200 206 206 203 202 202 203 203 205 205 209
232 255 188 230 253 220 196 210 262 265 275 265 249 259 278 292 302 294 284 281 273 253 234 221 212 206 200 200 199 197 199 203 204 204 203 209 203 208 204 199 203 208 208 201
250 258 276 252 205 159 269 182 200 212 247 253 260 259 279 307 298 295 284 285 289 292 266 227 217 215 213 209 207 205 207 206 207 207 205 210 204 204 201 199 201 202 203 200
239 235 271 172 201 203 170 181 219 222 265 268 269 267 199 270 297 297 294 296 294 295 291 263 232 219 203 200 205 205 205 204 201 202 204 205 203 197 197 199 202 202 199 197
218 242 247 231 209 285 227 215 206 225 240 251 266 276 46 296 315 317 309 307 300 299 296 289 244 222 199 200 211 210 205 203 201 198 198 201 200 193 193 197 198 196 200 200
188 205 233 188 180 196 234 233 228 237 245 241 247 267 33 334 329 329 320 309 304 300 303 298 283 247 220 219 224 222 214 202 197 195 193 192 201 197 195 196 191 193 197 197
243 224 238 248 270 199 226 232 222 216 232 246 248 269 284 304 312 315 316 309 304 302 302 299 298 291 257 247 246 230 222 204 194 195 194 195 202 197 194 193 189 190 194 197
237 239 247 263 266 249 241 238 221 221 237 248 263 267 276 291 298 302 308 307 299 303 307 304 306 303 296 271 262 249 227 202 192 196 197 199 195 189 184 186 187 188 193 198
282 234 241 259 255 253 259 250 235 234 242 250 265 272 281 295 296 293 294 295 288 292 298 305 310 308 304 288 267 249 238 212 195 196 198 190 183 180 180 180 180 183 188 193
199 198 231 254 277 270 255 237 224 226 230 234 247 263 296 296 293 287 286 281 276 287 296 302 301 299 300 295 277 248 244 221 201 197 193 188 183 182 184 181 180 187 194 197
197 206 236 264 241 242 254 110 218 231 246 242 262 282 288 290 293 289 283 278 280 288 295 300 304 301 301 296 283 252 223 209 197 190 189 189 188 183 182 185 189 195 197 203
226 203 214 227 253 269 269 209 201 222 260 247 256 279 296 309 300 286 305 298 281 283 285 294 302 301 304 304 293 227 216 196 183 192 195 197 188 181 182 188 192 195 196 207
60 218 223 215 241 252 278 143 201 216 258 250 259 275 292 311 284 305 339 324 312 309 315 323 319 308 303 301 281 208 209 199 208 217 215 202 190 185 188 190 192 192 194 206
163 198 219 226 247 268 305 145 176 214 282 333 273 276 271 262 274 316 326 327 326 326 331 334 322 308 304 307 290 237 225 232 240 215 193 183 184 189 186 181 184 179 181 195
201 191 202 205 224 253 129 153 204 274 335 306 295 290 278 277 293 307 316 324 326 330 332 329 326 321 321 317 277 258 253 249 180 175 178 173 168 171 175 175 175 176 173 186
222 217 214 218 239 313 199 226 268 300 285 290 292 296 288 286 291 301 309 315 320 319 320 322 321 318 316 306 269 252 268 222 174 172 174 163 160 168 174 179 176 174 179 191
229 221 237 255 261 265 258 262 269 268 273 287 289 291 285 286 296 303 303 309 317 320 321 321 315 307 306 306 295 273 261 204 181 183 179 169 166 166 168 180 188 186 192 198
238 197 231 256 268 279 264 254 264 275 276 280 282 277 274 279 285 290 297 302 305 311 313 308 297 295 299 301 293 290 258 198 189 193 185 174 172 167 170 182 193 211 232 226
212 208 215 245 255 258 282 296 286 275 275 276 280 287 283 270 271 280 286 291 295 302 306 302 298 298 303 306 296 290 262 218 191 185 186 183 176 174 177 164 147 158 222 235